Погода в Коропце

Украина / Тернопольская область     48°56′19″N   25°10′45″E
темп.,
°C
ветер,
м/с
пор.,
м/с
влажн.,
%
обл.,
%
осадки,
мм/ч
давл.,
гПа
погр.,
м
22 июня, вт
вт2200:00+18вюв349347 0.0 101269
03:00+17вюв34930 0.0 101157
06:00+16вюв22940 0.0 101242
09:00+21юв35810 0.0 1012365
12:00+24юв45715 0.0 1012796
15:00+26юв33632 0.0 10121002
18:00+26вюв34704 0.0 1012906
21:00+22ююв22830 0.0 101212
23 июня, ср
ср2300:00+20вюв22880 0.0 101313
03:00+19зюз11890 0.0 101311
06:00+18в22930 0.0 101421
09:00+23ю228282 0.0 1015308
12:00+26юв1270100 0.0 1015886
15:00+28вюв1160100 0.0 10151409
18:00+28всв126097 0.0 10151312
21:00+24сз0176100 0.1 101611
24 июня, чт
чт2400:00+22сз00835 0.6 101611
03:00+20зсз118746 0.8 101611
06:00+20сз119142 0.6 101713
09:00+24сз118339 0.6 1017283
12:00+27зсз117277 0.4 1017762
15:00+29ссв11595 0.4 10161484
18:00+29св33650 0.0 10151236
21:00+21ю358885 0.8 101684
25 июня, пт
пт2500:00+19ю117785 0.0 101611
03:00+18ююв22784 0.0 101514
06:00+18ююв22805 0.0 101522
09:00+23ююв35750 0.0 1015225
12:00+27юв456793 0.0 1014530
15:00+29ююв456299 0.0 1013755
18:00+20с1482100 7.1 101475
21:00+18юз4118412 7.6 1013183
26 июня, сб
сб2600:00+18ююв22775 0.0 101313
03:00+17сз22933 0.5 101445
06:00+16зсз5109898 0.0 1015235
09:00+19ссз688889 0.0 1016555
12:00+20сз5676100 0.0 1016639
15:00+23ссз3370100 0.0 10161070
18:00+23с2272100 0.0 1015983
21:00+20ссз3483100 0.1 101559